Time,TemperatureF,DewpointF,PressureIn,WindDirection,WindDirectionDegrees,WindSpeedMPH,WindSpeedGustMPH,Humidity,HourlyPrecipIn,Conditions,Clouds,dailyrainin,SoftwareType,DateUTC
2013-01-29 00:01:00,39.0,38.0,30.47,ESE,109,0.0,0.0,96,0.00,CLR,,0.00,WeatherDisplay:10.37,2013-01-29 05:01:00,
2013-01-29 00:03:00,39.0,38.0,30.47,ESE,109,0.0,0.0,96,0.00,CLR,,0.00,WeatherDisplay:10.37,2013-01-29 05:03:00,
2013-01-29 00:04:00,39.1,38.1,30.47,ESE,109,0.0,0.0,96,0.00,CLR,,0.00,WeatherDisplay:10.37,2013-01-29 05:04:00,
2013-01-29 00:09:00,39.0,38.0,30.47,ESE,109,0.0,0.0,96,0.00,CLR,,0.00,WeatherDisplay:10.37,2013-01-29 05:09:00,
2013-01-29 00:14:00,38.9,37.9,30.47,ESE,109,0.0,0.0,96,0.00,CLR,,0.00,WeatherDisplay:10.37,2013-01-29 05:14:00,
2013-01-29 00:19:00,38.9,37.9,30.47,ESE,110,2.3,2.3,96,0.00,CLR,,0.00,WeatherDisplay:10.37,2013-01-29 05:19:00,
2013-01-29 00:24:00,38.8,37.8,30.47,ESE,110,0.0,0.0,96,0.00,CLR,,0.00,WeatherDisplay:10.37,2013-01-29 05:24:00,
2013-01-29 00:29:00,38.8,37.8,30.46,ESE,110,1.1,1.1,96,0.00,CLR,,0.00,WeatherDisplay:10.37,2013-01-29 05:29:00,
2013-01-29 00:34:00,38.8,37.8,30.46,ESE,110,0.0,0.0,96,0.00,CLR,,0.00,WeatherDisplay:10.37,2013-01-29 05:34:00,
2013-01-29 00:39:00,38.8,37.8,30.46,ESE,110,1.1,1.1,96,0.00,CLR,,0.00,WeatherDisplay:10.37,2013-01-29 05:39:00,
2013-01-29 00:44:00,38.8,37.8,30.46,ESE,110,1.1,1.1,96,0.00,CLR,,0.00,WeatherDisplay:10.37,2013-01-29 05:44:00,
2013-01-29 00:49:00,38.8,37.8,30.46,ESE,110,1.1,1.1,96,0.00,CLR,,0.00,WeatherDisplay:10.37,2013-01-29 05:49:00,
2013-01-29 00:54:00,38.7,37.7,30.46,ESE,110,0.0,0.0,96,0.00,CLR,,0.00,WeatherDisplay:10.37,2013-01-29 05:54:00,
2013-01-29 00:59:00,38.7,37.7,30.45,ESE,110,0.0,0.0,96,0.00,CLR,,0.00,WeatherDisplay:10.37,2013-01-29 05:59:00,
2013-01-29 01:04:00,38.7,37.7,30.45,ESE,110,0.0,0.0,96,0.00,CLR,,0.00,WeatherDisplay:10.37,2013-01-29 06:04:00,
2013-01-29 01:09:00,38.6,37.6,30.45,ESE,110,0.0,0.0,96,0.00,CLR,,0.00,WeatherDisplay:10.37,2013-01-29 06:09:00,
2013-01-29 01:14:00,38.6,37.6,30.45,ESE,110,0.0,0.0,96,0.00,CLR,,0.00,WeatherDisplay:10.37,2013-01-29 06:14:00,
2013-01-29 01:19:00,38.6,37.6,30.45,ESE,110,1.1,1.1,96,0.00,CLR,,0.00,WeatherDisplay:10.37,2013-01-29 06:19:00,
2013-01-29 01:24:00,38.6,37.6,30.45,ESE,110,1.1,0.0,96,0.00,CLR,,0.00,WeatherDisplay:10.37,2013-01-29 06:24:00,
2013-01-29 01:29:00,38.5,37.5,30.45,ESE,110,1.1,1.1,96,0.00,CLR,,0.00,WeatherDisplay:10.37,2013-01-29 06:29:00,
2013-01-29 01:34:00,38.5,37.5,30.45,ESE,110,1.1,0.0,96,0.00,CLR,,0.00,WeatherDisplay:10.37,2013-01-29 06:34:00,
2013-01-29 01:39:00,38.4,37.4,30.45,ESE,110,1.1,0.0,96,0.00,CLR,,0.00,WeatherDisplay:10.37,2013-01-29 06:39:00,
2013-01-29 01:44:00,38.5,37.5,30.44,ESE,110,0.0,0.0,96,0.00,CLR,,0.00,WeatherDisplay:10.37,2013-01-29 06:44:00,
2013-01-29 01:49:00,38.5,37.5,30.44,ESE,110,1.1,1.1,96,0.00,CLR,,0.00,WeatherDisplay:10.37,2013-01-29 06:49:00,
2013-01-29 01:54:00,38.6,37.8,30.44,ESE,110,0.0,0.0,97,0.00,CLR,,0.00,WeatherDisplay:10.37,2013-01-29 06:54:00,
2013-01-29 01:59:00,38.7,37.9,30.44,ESE,110,0.0,0.0,97,0.00,CLR,,0.00,WeatherDisplay:10.37,2013-01-29 06:59:00,
2013-01-29 02:04:00,38.8,38.0,30.44,ESE,110,1.1,1.1,97,0.00,CLR,,0.00,WeatherDisplay:10.37,2013-01-29 07:04:00,
2013-01-29 02:09:00,39.0,38.2,30.44,SSE,153,1.1,1.1,97,0.00,CLR,,0.00,WeatherDisplay:10.37,2013-01-29 07:09:00,
2013-01-29 02:14:00,39.2,38.7,30.44,SSE,153,0.0,0.0,98,0.00,CLR,,0.00,WeatherDisplay:10.37,2013-01-29 07:14:00,
2013-01-29 02:19:00,39.6,39.1,30.44,SSE,154,1.1,1.1,98,0.00,CLR,,0.00,WeatherDisplay:10.37,2013-01-29 07:19:00,
2013-01-29 02:24:00,39.9,39.4,30.43,SSE,154,0.0,0.0,98,0.00,CLR,,0.00,WeatherDisplay:10.37,2013-01-29 07:24:00,
2013-01-29 02:29:00,40.1,39.6,30.43,SSE,153,0.0,0.0,98,0.00,CLR,,0.00,WeatherDisplay:10.37,2013-01-29 07:29:00,
2013-01-29 02:34:00,40.4,39.9,30.43,SSE,154,0.0,0.0,98,0.00,CLR,,0.00,WeatherDisplay:10.37,2013-01-29 07:34:00,
2013-01-29 02:39:00,40.6,40.1,30.43,SSE,153,0.0,0.0,98,0.00,CLR,,0.00,WeatherDisplay:10.37,2013-01-29 07:39:00,
2013-01-29 02:44:00,40.8,40.3,30.43,SSE,153,0.0,0.0,98,0.00,CLR,,0.00,WeatherDisplay:10.37,2013-01-29 07:44:00,
2013-01-29 02:49:00,41.1,40.6,30.43,SSE,153,0.0,0.0,98,0.00,CLR,,0.00,WeatherDisplay:10.37,2013-01-29 07:49:00,
2013-01-29 02:54:00,41.4,40.9,30.43,SSE,154,0.0,0.0,98,0.00,CLR,,0.00,WeatherDisplay:10.37,2013-01-29 07:54:00,
2013-01-29 02:59:00,41.6,41.1,30.43,SSE,154,0.0,0.0,98,0.00,CLR,,0.00,WeatherDisplay:10.37,2013-01-29 07:59:00,
2013-01-29 03:04:00,41.8,41.3,30.43,SSE,153,0.0,0.0,98,0.00,CLR,,0.00,WeatherDisplay:10.37,2013-01-29 08:04:00,
2013-01-29 03:09:00,42.0,41.5,30.43,SSE,153,0.0,0.0,98,0.00,CLR,,0.00,WeatherDisplay:10.37,2013-01-29 08:09:00,
2013-01-29 03:14:00,42.4,41.9,30.43,SSE,154,0.0,0.0,98,0.00,CLR,,0.00,WeatherDisplay:10.37,2013-01-29 08:14:00,
2013-01-29 03:19:00,42.5,42.2,30.43,SSE,153,0.0,0.0,99,0.00,CLR,,0.00,WeatherDisplay:10.37,2013-01-29 08:19:00,
2013-01-29 03:24:00,42.7,42.4,30.43,SSE,153,0.0,0.0,99,0.00,CLR,,0.00,WeatherDisplay:10.37,2013-01-29 08:24:00,
2013-01-29 03:29:00,42.9,42.4,30.43,SSE,154,0.0,0.0,98,0.00,CLR,,0.00,WeatherDisplay:10.37,2013-01-29 08:29:00,
2013-01-29 03:34:00,43.1,42.6,30.43,SSE,154,0.0,0.0,98,0.00,CLR,,0.00,WeatherDisplay:10.37,2013-01-29 08:34:00,
2013-01-29 03:39:00,43.3,43.0,30.43,SSE,154,2.0,2.0,99,0.00,CLR,,0.00,WeatherDisplay:10.37,2013-01-29 08:39:00,
2013-01-29 03:44:00,43.5,43.2,30.43,SSW,209,1.0,1.0,99,0.00,CLR,,0.00,WeatherDisplay:10.37,2013-01-29 08:44:00,
2013-01-29 03:49:00,43.7,43.4,30.43,SSW,209,0.0,0.0,99,0.00,CLR,,0.00,WeatherDisplay:10.37,2013-01-29 08:49:00,
2013-01-29 03:54:00,43.8,43.5,30.42,SSW,209,0.0,0.0,99,0.00,CLR,,0.00,WeatherDisplay:10.37,2013-01-29 08:54:00,
2013-01-29 03:59:00,44.0,43.7,30.42,SSW,209,0.0,0.0,99,0.00,CLR,,0.00,WeatherDisplay:10.37,2013-01-29 08:59:00,
2013-01-29 04:04:00,44.2,43.9,30.42,SSW,209,0.0,0.0,99,0.00,CLR,,0.00,WeatherDisplay:10.37,2013-01-29 09:04:00,
2013-01-29 04:09:00,44.4,44.1,30.42,SSW,209,0.0,0.0,99,0.00,CLR,,0.00,WeatherDisplay:10.37,2013-01-29 09:09:00,
2013-01-29 04:14:00,44.6,44.3,30.42,SSW,209,0.0,0.0,99,0.00,CLR,,0.00,WeatherDisplay:10.37,2013-01-29 09:14:00,
2013-01-29 04:19:00,44.7,44.4,30.42,SSW,209,0.0,0.0,99,0.00,CLR,,0.00,WeatherDisplay:10.37,2013-01-29 09:19:00,
2013-01-29 04:24:00,44.9,44.6,30.42,SSW,209,0.0,0.0,99,0.00,CLR,,0.00,WeatherDisplay:10.37,2013-01-29 09:24:00,
2013-01-29 04:29:00,45.1,44.8,30.41,SSW,209,0.0,0.0,99,0.00,CLR,,0.00,WeatherDisplay:10.37,2013-01-29 09:29:00,
2013-01-29 04:34:00,45.4,45.1,30.41,SSW,209,0.0,0.0,99,0.00,CLR,,0.00,WeatherDisplay:10.37,2013-01-29 09:34:00,
2013-01-29 04:39:00,45.4,45.1,30.41,SSW,209,0.0,0.0,99,0.00,CLR,,0.00,WeatherDisplay:10.37,2013-01-29 09:39:00,
2013-01-29 04:44:00,45.5,45.2,30.41,SSW,209,0.0,0.0,99,0.00,CLR,,0.00,WeatherDisplay:10.37,2013-01-29 09:44:00,
2013-01-29 04:49:00,45.6,45.3,30.40,SSW,209,0.0,0.0,99,0.00,CLR,,0.00,WeatherDisplay:10.37,2013-01-29 09:49:00,
2013-01-29 04:54:00,45.8,45.5,30.40,SSW,209,0.0,0.0,99,0.00,CLR,,0.00,WeatherDisplay:10.37,2013-01-29 09:54:00,
2013-01-29 04:59:00,45.9,45.6,30.40,SSW,209,0.0,0.0,99,0.00,CLR,,0.00,WeatherDisplay:10.37,2013-01-29 09:59:00,
2013-01-29 05:04:00,45.9,45.4,30.39,SSW,209,0.0,0.0,98,0.00,CLR,,0.00,WeatherDisplay:10.37,2013-01-29 10:04:00,
2013-01-29 05:09:00,46.0,45.7,30.39,SSW,209,0.0,0.0,99,0.00,CLR,,0.00,WeatherDisplay:10.37,2013-01-29 10:09:00,
2013-01-29 05:14:00,46.1,45.8,30.39,SSW,209,0.0,0.0,99,0.00,CLR,,0.00,WeatherDisplay:10.37,2013-01-29 10:14:00,
2013-01-29 05:19:00,46.2,45.9,30.40,SSW,209,0.0,0.0,99,0.00,CLR,,0.00,WeatherDisplay:10.37,2013-01-29 10:19:00,
2013-01-29 05:24:00,46.3,45.8,30.39,SSW,209,1.1,1.1,98,0.00,CLR,,0.00,WeatherDisplay:10.37,2013-01-29 10:24:00,
2013-01-29 05:29:00,46.3,45.8,30.39,SSW,209,0.0,0.0,98,0.00,CLR,,0.00,WeatherDisplay:10.37,2013-01-29 10:29:00,
2013-01-29 05:34:00,46.4,45.9,30.39,SSW,209,0.0,0.0,98,0.00,CLR,,0.00,WeatherDisplay:10.37,2013-01-29 10:34:00,
2013-01-29 05:39:00,46.4,45.9,30.39,SSW,209,0.0,0.0,98,0.00,CLR,,0.00,WeatherDisplay:10.37,2013-01-29 10:39:00,
2013-01-29 05:44:00,46.6,46.3,30.38,SSW,209,0.0,0.0,99,0.00,CLR,,0.00,WeatherDisplay:10.37,2013-01-29 10:44:00,
2013-01-29 05:49:00,46.8,46.5,30.38,SSW,209,1.1,1.1,99,0.00,CLR,,0.00,WeatherDisplay:10.37,2013-01-29 10:49:00,
2013-01-29 05:54:00,46.9,46.6,30.38,SW,234,0.0,0.0,99,0.00,CLR,,0.00,WeatherDisplay:10.37,2013-01-29 10:54:00,
2013-01-29 05:59:00,46.9,46.4,30.38,South,188,2.3,2.3,98,0.00,CLR,,0.00,WeatherDisplay:10.37,2013-01-29 10:59:00,
2013-01-29 06:04:00,47.0,46.5,30.38,South,188,1.1,1.1,98,0.00,CLR,,0.00,WeatherDisplay:10.37,2013-01-29 11:04:00,
2013-01-29 06:09:00,47.0,46.5,30.38,South,188,0.0,0.0,98,0.00,CLR,,0.00,WeatherDisplay:10.37,2013-01-29 11:09:00,
2013-01-29 06:14:00,47.0,46.5,30.39,South,188,0.0,0.1,98,0.00,CLR,,0.00,WeatherDisplay:10.37,2013-01-29 11:14:00,
2013-01-29 06:19:00,47.2,46.9,30.39,South,188,0.0,0.0,99,0.00,CLR,,0.00,WeatherDisplay:10.37,2013-01-29 11:19:00,
2013-01-29 06:24:00,47.4,47.1,30.39,South,188,0.0,0.0,99,0.00,CLR,,0.00,WeatherDisplay:10.37,2013-01-29 11:24:00,
2013-01-29 06:29:00,47.5,47.0,30.38,South,188,0.0,0.0,98,0.00,CLR,,0.00,WeatherDisplay:10.37,2013-01-29 11:29:00,
2013-01-29 06:34:00,47.6,47.1,30.38,South,188,0.0,0.0,98,0.00,CLR,,0.00,WeatherDisplay:10.37,2013-01-29 11:34:00,
2013-01-29 06:40:00,47.8,47.5,30.38,South,188,0.0,0.0,99,0.00,CLR,,0.00,WeatherDisplay:10.37,2013-01-29 11:40:00,
2013-01-29 06:45:00,47.8,47.5,30.38,South,188,0.0,0.0,99,0.00,CLR,,0.00,WeatherDisplay:10.37,2013-01-29 11:45:00,
2013-01-29 06:50:00,47.9,47.6,30.38,South,188,0.0,0.0,99,0.00,CLR,,0.00,WeatherDisplay:10.37,2013-01-29 11:50:00,
2013-01-29 06:55:00,48.0,47.7,30.38,South,188,0.0,0.0,99,0.00,CLR,,0.00,WeatherDisplay:10.37,2013-01-29 11:55:00,
2013-01-29 07:00:00,48.1,47.6,30.37,South,188,0.0,0.0,98,0.00,CLR,,0.00,WeatherDisplay:10.37,2013-01-29 12:00:00,
2013-01-29 07:05:00,48.2,47.7,30.38,South,188,0.0,0.0,98,0.00,CLR,,0.00,WeatherDisplay:10.37,2013-01-29 12:05:00,
2013-01-29 07:10:00,48.3,48.0,30.38,South,188,0.0,0.0,99,0.00,CLR,,0.00,WeatherDisplay:10.37,2013-01-29 12:10:00,
2013-01-29 07:15:00,48.4,48.1,30.38,South,188,0.0,0.0,99,0.00,CLR,,0.00,WeatherDisplay:10.37,2013-01-29 12:15:00,
2013-01-29 07:20:00,48.5,48.2,30.38,South,188,0.0,0.0,99,0.00,CLR,,0.00,WeatherDisplay:10.37,2013-01-29 12:20:00,
2013-01-29 07:25:00,48.6,48.3,30.38,South,188,0.0,0.0,99,0.00,CLR,,0.00,WeatherDisplay:10.37,2013-01-29 12:25:00,
2013-01-29 07:30:00,48.6,48.1,30.38,South,188,0.0,0.0,98,0.00,CLR,,0.00,WeatherDisplay:10.37,2013-01-29 12:30:00,
2013-01-29 07:35:00,48.7,48.2,30.38,South,188,0.0,0.0,98,0.00,CLR,,0.00,WeatherDisplay:10.37,2013-01-29 12:35:00,
2013-01-29 07:40:00,48.7,48.2,30.38,South,188,0.0,0.0,98,0.00,CLR,,0.00,WeatherDisplay:10.37,2013-01-29 12:40:00,
2013-01-29 07:45:00,48.7,48.2,30.38,South,188,0.0,0.0,98,0.00,CLR,,0.00,WeatherDisplay:10.37,2013-01-29 12:45:00,
2013-01-29 07:50:00,48.8,48.3,30.38,South,188,0.0,0.0,98,0.00,CLR,,0.00,WeatherDisplay:10.37,2013-01-29 12:50:00,
2013-01-29 07:55:00,48.8,48.3,30.38,South,188,0.0,0.0,98,0.00,CLR,,0.00,WeatherDisplay:10.37,2013-01-29 12:55:00,
2013-01-29 08:00:00,48.8,48.3,30.37,South,188,0.0,0.0,98,0.00,CLR,,0.00,WeatherDisplay:10.37,2013-01-29 13:00:00,
2013-01-29 08:05:00,48.9,48.4,30.37,South,188,0.0,0.0,98,0.00,CLR,,0.00,WeatherDisplay:10.37,2013-01-29 13:05:00,
2013-01-29 08:10:00,48.9,48.4,30.38,South,188,0.0,0.0,98,0.00,CLR,,0.00,WeatherDisplay:10.37,2013-01-29 13:10:00,
2013-01-29 08:15:00,49.0,48.5,30.38,South,188,0.0,0.0,98,0.00,CLR,,0.00,WeatherDisplay:10.37,2013-01-29 13:15:00,
2013-01-29 08:20:00,49.0,48.5,30.38,South,188,0.0,0.0,98,0.00,CLR,,0.00,WeatherDisplay:10.37,2013-01-29 13:20:00,
2013-01-29 08:25:00,49.1,48.6,30.38,South,188,0.0,0.0,98,0.00,CLR,,0.00,WeatherDisplay:10.37,2013-01-29 13:25:00,
2013-01-29 08:30:00,49.2,48.7,30.38,South,188,0.0,0.0,98,0.00,CLR,,0.00,WeatherDisplay:10.37,2013-01-29 13:30:00,
2013-01-29 08:35:00,49.3,48.8,30.38,South,188,0.0,0.0,98,0.00,CLR,,0.00,WeatherDisplay:10.37,2013-01-29 13:35:00,
2013-01-29 08:40:00,49.5,49.2,30.37,South,188,0.0,0.0,99,0.00,CLR,,0.00,WeatherDisplay:10.37,2013-01-29 13:40:00,
2013-01-29 08:45:00,49.7,49.4,30.37,South,188,0.0,0.0,99,0.00,CLR,,0.00,WeatherDisplay:10.37,2013-01-29 13:45:00,
2013-01-29 08:50:00,49.9,49.6,30.37,South,188,0.0,0.0,99,0.00,CLR,,0.00,WeatherDisplay:10.37,2013-01-29 13:50:00,
2013-01-29 08:55:00,50.1,49.8,30.37,South,188,0.0,0.0,99,0.00,CLR,,0.00,WeatherDisplay:10.37,2013-01-29 13:55:00,
2013-01-29 09:00:00,50.3,50.0,30.37,South,188,0.0,0.0,99,0.00,CLR,,0.00,WeatherDisplay:10.37,2013-01-29 14:00:00,
2013-01-29 09:05:00,50.5,50.2,30.37,South,188,0.0,0.0,99,0.00,CLR,,0.00,WeatherDisplay:10.37,2013-01-29 14:05:00,
2013-01-29 09:10:00,50.7,50.4,30.37,South,188,0.0,0.0,99,0.00,CLR,,0.00,WeatherDisplay:10.37,2013-01-29 14:10:00,
2013-01-29 09:15:00,50.9,50.6,30.38,South,188,0.0,0.0,99,0.00,CLR,,0.00,WeatherDisplay:10.37,2013-01-29 14:15:00,
2013-01-29 09:20:00,51.1,50.8,30.38,South,188,0.0,0.0,99,0.00,CLR,,0.00,WeatherDisplay:10.37,2013-01-29 14:20:00,
2013-01-29 09:25:00,51.4,51.1,30.38,South,188,0.0,0.0,99,0.00,CLR,,0.00,WeatherDisplay:10.37,2013-01-29 14:25:00,
2013-01-29 09:30:00,51.5,51.2,30.38,South,188,0.0,0.0,99,0.00,CLR,,0.00,WeatherDisplay:10.37,2013-01-29 14:30:00,
2013-01-29 09:35:00,51.8,51.5,30.38,South,188,0.0,0.0,99,0.00,CLR,,0.00,WeatherDisplay:10.37,2013-01-29 14:35:00,
2013-01-29 09:40:00,51.9,51.6,30.37,South,188,0.0,0.0,99,0.00,CLR,,0.00,WeatherDisplay:10.37,2013-01-29 14:40:00,
2013-01-29 09:45:00,52.2,51.9,30.38,South,188,0.0,0.0,99,0.00,CLR,,0.00,WeatherDisplay:10.37,2013-01-29 14:45:00,
2013-01-29 09:50:00,52.4,52.1,30.38,South,188,0.0,0.0,99,0.00,CLR,,0.00,WeatherDisplay:10.37,2013-01-29 14:50:00,
2013-01-29 09:55:00,52.6,52.3,30.37,South,188,0.0,0.0,99,0.00,CLR,,0.00,WeatherDisplay:10.37,2013-01-29 14:55:00,
2013-01-29 10:00:00,52.7,52.4,30.37,South,188,0.0,0.0,99,0.00,CLR,,0.00,WeatherDisplay:10.37,2013-01-29 15:00:00,
2013-01-29 10:05:00,52.9,52.6,30.38,South,188,0.0,0.0,99,0.00,CLR,,0.00,WeatherDisplay:10.37,2013-01-29 15:05:00,
2013-01-29 10:10:00,53.0,52.7,30.37,South,188,0.0,0.0,99,0.00,CLR,,0.00,WeatherDisplay:10.37,2013-01-29 15:10:00,
2013-01-29 10:15:00,53.2,52.9,30.38,South,188,0.0,0.0,99,0.00,CLR,,0.00,WeatherDisplay:10.37,2013-01-29 15:15:00,
2013-01-29 10:20:00,53.3,53.0,30.38,South,188,0.0,0.0,99,0.00,CLR,,0.00,WeatherDisplay:10.37,2013-01-29 15:20:00,
2013-01-29 10:25:00,53.5,53.2,30.37,South,188,0.0,0.0,99,0.00,CLR,,0.00,WeatherDisplay:10.37,2013-01-29 15:25:00,
2013-01-29 10:30:00,53.6,53.3,30.38,South,188,0.0,0.0,99,0.00,CLR,,0.00,WeatherDisplay:10.37,2013-01-29 15:30:00,
2013-01-29 10:35:00,53.9,53.6,30.38,South,188,0.0,0.0,99,0.00,CLR,,0.00,WeatherDisplay:10.37,2013-01-29 15:35:00,
2013-01-29 10:40:00,54.0,53.7,30.38,South,188,0.0,0.0,99,0.00,CLR,,0.00,WeatherDisplay:10.37,2013-01-29 15:40:00,
2013-01-29 10:45:00,54.2,53.9,30.38,South,188,0.0,0.0,99,0.00,CLR,,0.00,WeatherDisplay:10.37,2013-01-29 15:45:00,
2013-01-29 10:50:00,54.4,54.1,30.38,South,188,0.0,0.0,99,0.00,CLR,,0.00,WeatherDisplay:10.37,2013-01-29 15:50:00,
2013-01-29 10:55:00,54.6,54.3,30.37,South,188,0.0,0.0,99,0.00,CLR,,0.00,WeatherDisplay:10.37,2013-01-29 15:55:00,
2013-01-29 11:00:00,54.9,54.6,30.37,South,188,0.0,0.0,99,0.00,CLR,,0.00,WeatherDisplay:10.37,2013-01-29 16:00:00,
2013-01-29 11:05:00,55.2,54.9,30.37,South,188,0.0,0.0,99,0.00,CLR,,0.00,WeatherDisplay:10.37,2013-01-29 16:05:00,
2013-01-29 11:10:00,55.3,55.0,30.37,South,188,0.0,0.0,99,0.00,CLR,,0.00,WeatherDisplay:10.37,2013-01-29 16:10:00,
2013-01-29 11:15:00,55.5,55.2,30.37,South,188,0.0,0.0,99,0.00,CLR,,0.00,WeatherDisplay:10.37,2013-01-29 16:15:00,
2013-01-29 11:20:00,55.6,55.3,30.37,South,188,0.0,0.0,99,0.00,CLR,,0.00,WeatherDisplay:10.37,2013-01-29 16:20:00,
2013-01-29 11:25:00,55.8,55.5,30.36,South,188,0.0,0.0,99,0.00,CLR,,0.00,WeatherDisplay:10.37,2013-01-29 16:25:00,
2013-01-29 11:30:00,55.8,55.5,30.36,South,188,0.0,0.0,99,0.00,CLR,,0.00,WeatherDisplay:10.37,2013-01-29 16:30:00,
2013-01-29 11:35:00,55.9,55.3,30.36,South,188,0.0,0.0,98,0.00,CLR,,0.00,WeatherDisplay:10.37,2013-01-29 16:35:00,
2013-01-29 11:40:00,56.0,55.4,30.36,South,188,0.0,0.0,98,0.00,CLR,,0.00,WeatherDisplay:10.37,2013-01-29 16:40:00,
2013-01-29 11:45:00,56.1,55.5,30.35,South,188,0.0,0.0,98,0.00,CLR,,0.00,WeatherDisplay:10.37,2013-01-29 16:45:00,
2013-01-29 11:50:00,56.3,55.7,30.35,South,188,0.0,0.0,98,0.00,CLR,,0.00,WeatherDisplay:10.37,2013-01-29 16:50:00,
2013-01-29 11:55:00,56.5,55.9,30.35,South,188,0.0,0.0,98,0.00,CLR,,0.00,WeatherDisplay:10.37,2013-01-29 16:55:00,
2013-01-29 12:00:00,56.6,56.0,30.34,South,188,0.0,0.0,98,0.00,CLR,,0.00,WeatherDisplay:10.37,2013-01-29 17:00:00,
2013-01-29 12:05:00,56.8,56.2,30.34,South,188,0.0,0.0,98,0.00,CLR,,0.00,WeatherDisplay:10.37,2013-01-29 17:05:00,
2013-01-29 12:10:00,56.9,56.3,30.34,South,186,0.0,0.0,98,0.00,CLR,,0.00,WeatherDisplay:10.37,2013-01-29 17:10:00,
2013-01-29 12:15:00,57.0,56.4,30.33,South,186,0.0,0.0,98,0.00,CLR,,0.00,WeatherDisplay:10.37,2013-01-29 17:15:00,
2013-01-29 12:20:00,57.1,56.5,30.33,South,186,0.0,0.0,98,0.00,CLR,,0.00,WeatherDisplay:10.37,2013-01-29 17:20:00,
2013-01-29 12:25:00,57.1,56.5,30.33,East,98,1.1,0.0,98,0.00,CLR,,0.00,WeatherDisplay:10.37,2013-01-29 17:25:00,
2013-01-29 12:30:00,57.1,56.3,30.32,East,98,0.0,0.0,97,0.00,CLR,,0.00,WeatherDisplay:10.37,2013-01-29 17:30:00,
2013-01-29 12:35:00,57.1,56.3,30.32,East,98,0.0,0.0,97,0.00,CLR,,0.00,WeatherDisplay:10.37,2013-01-29 17:35:00,
2013-01-29 12:40:00,57.1,56.3,30.32,East,98,0.0,0.0,97,0.00,CLR,,0.00,WeatherDisplay:10.37,2013-01-29 17:40:00,
2013-01-29 12:45:00,57.1,56.3,30.31,East,98,0.0,0.0,97,0.00,CLR,,0.00,WeatherDisplay:10.37,2013-01-29 17:45:00,
2013-01-29 12:50:00,57.0,56.2,30.31,East,98,0.0,0.0,97,0.00,CLR,,0.00,WeatherDisplay:10.37,2013-01-29 17:50:00,
2013-01-29 12:55:00,57.0,56.2,30.31,ENE,76,0.0,0.0,97,0.00,CLR,,0.00,WeatherDisplay:10.37,2013-01-29 17:55:00,
2013-01-29 13:00:00,56.9,56.1,30.30,ENE,76,0.0,0.0,97,0.00,CLR,,0.00,WeatherDisplay:10.37,2013-01-29 18:00:00,
2013-01-29 13:05:00,56.9,56.1,30.30,ENE,75,0.0,0.0,97,0.00,CLR,,0.00,WeatherDisplay:10.37,2013-01-29 18:05:00,
2013-01-29 13:10:00,56.9,56.1,30.30,ENE,75,0.0,0.0,97,0.00,CLR,,0.00,WeatherDisplay:10.37,2013-01-29 18:10:00,
2013-01-29 13:15:00,56.9,56.1,30.30,ENE,75,0.0,0.0,97,0.00,CLR,,0.00,WeatherDisplay:10.37,2013-01-29 18:15:00,
2013-01-29 13:20:00,56.9,56.1,30.29,ENE,75,0.0,0.0,97,0.00,CLR,,0.00,WeatherDisplay:10.37,2013-01-29 18:20:00,
2013-01-29 13:25:00,56.9,56.1,30.29,ENE,75,0.0,0.0,97,0.00,CLR,,0.00,WeatherDisplay:10.37,2013-01-29 18:25:00,
2013-01-29 13:30:00,57.0,56.4,30.29,ENE,76,0.0,0.0,98,0.00,CLR,,0.00,WeatherDisplay:10.37,2013-01-29 18:30:00,
2013-01-29 13:35:00,57.0,56.4,30.29,ENE,76,0.0,0.0,98,0.00,CLR,,0.00,WeatherDisplay:10.37,2013-01-29 18:35:00,
2013-01-29 13:40:00,57.0,56.4,30.28,ENE,76,0.0,0.0,98,0.00,CLR,,0.00,WeatherDisplay:10.37,2013-01-29 18:40:00,
2013-01-29 13:45:00,57.0,56.4,30.28,ENE,76,0.0,0.0,98,0.00,CLR,,0.00,WeatherDisplay:10.37,2013-01-29 18:45:00,
2013-01-29 13:50:00,57.1,56.5,30.27,ENE,76,0.0,0.0,98,0.00,CLR,,0.00,WeatherDisplay:10.37,2013-01-29 18:50:00,
2013-01-29 13:55:00,57.2,56.6,30.27,ENE,75,1.0,1.0,98,0.00,CLR,,0.00,WeatherDisplay:10.37,2013-01-29 18:55:00,
2013-01-29 14:00:00,57.4,56.8,30.26,ENE,75,0.0,0.0,98,0.00,CLR,,0.00,WeatherDisplay:10.37,2013-01-29 19:00:00,
2013-01-29 14:05:00,57.5,56.9,30.26,ENE,75,0.0,0.0,98,0.00,CLR,,0.00,WeatherDisplay:10.37,2013-01-29 19:05:00,
2013-01-29 14:10:00,57.6,57.0,30.26,ENE,75,0.0,0.0,98,0.00,CLR,,0.00,WeatherDisplay:10.37,2013-01-29 19:10:00,
2013-01-29 14:15:00,57.8,57.2,30.25,ENE,75,0.0,0.0,98,0.00,CLR,,0.00,WeatherDisplay:10.37,2013-01-29 19:15:00,
2013-01-29 14:20:00,58.1,57.5,30.25,ENE,72,0.0,0.0,98,0.00,CLR,,0.00,WeatherDisplay:10.37,2013-01-29 19:20:00,
2013-01-29 14:25:00,58.4,57.8,30.25,ENE,72,0.0,0.0,98,0.00,CLR,,0.00,WeatherDisplay:10.37,2013-01-29 19:25:00,
2013-01-29 14:30:00,58.5,57.9,30.25,ENE,72,0.0,0.0,98,0.00,CLR,,0.00,WeatherDisplay:10.37,2013-01-29 19:30:00,
2013-01-29 14:35:00,58.6,57.8,30.25,ENE,72,0.0,0.0,97,0.00,CLR,,0.00,WeatherDisplay:10.37,2013-01-29 19:35:00,
2013-01-29 14:40:00,58.8,58.0,30.24,ENE,72,0.0,0.0,97,0.00,CLR,,0.00,WeatherDisplay:10.37,2013-01-29 19:40:00,
2013-01-29 14:45:00,59.0,57.9,30.25,ENE,72,0.0,0.0,96,0.00,CLR,,0.00,WeatherDisplay:10.37,2013-01-29 19:45:00,
2013-01-29 14:50:00,59.2,58.1,30.24,ENE,72,1.1,1.1,96,0.00,CLR,,0.00,WeatherDisplay:10.37,2013-01-29 19:50:00,
2013-01-29 14:55:00,59.5,58.1,30.24,ENE,72,0.0,0.0,95,0.00,CLR,,0.00,WeatherDisplay:10.37,2013-01-29 19:55:00,
2013-01-29 15:00:00,59.9,58.2,30.24,ENE,72,0.0,0.0,94,0.00,CLR,,0.00,WeatherDisplay:10.37,2013-01-29 20:00:00,
2013-01-29 15:01:00,60.0,58.3,30.24,ENE,72,0.0,0.0,94,0.00,CLR,,0.00,WeatherDisplay:10.37,2013-01-29 20:01:00,
2013-01-29 15:06:00,60.4,58.7,30.23,East,82,1.1,1.1,94,0.00,CLR,,0.00,WeatherDisplay:10.37,2013-01-29 20:06:00,
2013-01-29 15:11:00,60.8,58.8,30.22,East,82,0.0,0.0,93,0.00,CLR,,0.00,WeatherDisplay:10.37,2013-01-29 20:11:00,
2013-01-29 15:16:00,61.2,58.9,30.22,West,267,0.0,0.0,92,0.00,CLR,,0.00,WeatherDisplay:10.37,2013-01-29 20:16:00,
2013-01-29 15:21:00,61.5,58.8,30.22,West,272,0.0,0.0,91,0.00,CLR,,0.00,WeatherDisplay:10.37,2013-01-29 20:21:00,
2013-01-29 15:26:00,61.8,58.8,30.22,East,91,1.1,1.1,90,0.00,CLR,,0.00,WeatherDisplay:10.37,2013-01-29 20:26:00,
2013-01-29 15:31:00,62.3,59.3,30.22,East,92,1.1,1.1,90,0.00,CLR,,0.00,WeatherDisplay:10.37,2013-01-29 20:31:00,
2013-01-29 15:36:00,62.7,59.1,30.21,ENE,60,2.3,2.3,88,0.00,CLR,,0.00,WeatherDisplay:10.37,2013-01-29 20:36:00,
2013-01-29 15:41:00,62.9,59.3,30.21,NW,314,1.1,1.1,88,0.00,CLR,,0.00,WeatherDisplay:10.37,2013-01-29 20:41:00,
2013-01-29 15:46:00,63.2,58.9,30.21,NE,42,2.3,2.3,86,0.00,CLR,,0.00,WeatherDisplay:10.37,2013-01-29 20:46:00,
2013-01-29 15:51:00,63.4,59.1,30.20,NE,52,0.0,0.0,86,0.00,CLR,,0.00,WeatherDisplay:10.37,2013-01-29 20:51:00,
2013-01-29 15:56:00,63.5,58.6,30.20,East,101,0.0,0.0,84,0.00,CLR,,0.00,WeatherDisplay:10.37,2013-01-29 20:56:00,
2013-01-29 16:01:00,63.6,58.7,30.21,East,101,0.0,0.0,84,0.00,CLR,,0.00,WeatherDisplay:10.37,2013-01-29 21:01:00,
2013-01-29 16:06:00,63.6,58.7,30.20,NNE,13,1.1,1.1,84,0.00,CLR,,0.00,WeatherDisplay:10.37,2013-01-29 21:06:00,
2013-01-29 16:11:00,63.6,58.7,30.20,NNE,13,0.0,0.0,84,0.00,CLR,,0.00,WeatherDisplay:10.37,2013-01-29 21:11:00,
2013-01-29 16:16:00,63.6,58.7,30.20,NNE,33,1.0,1.0,84,0.00,CLR,,0.00,WeatherDisplay:10.37,2013-01-29 21:16:00,
2013-01-29 16:21:00,63.6,58.7,30.20,NE,38,0.0,0.0,84,0.00,CLR,,0.00,WeatherDisplay:10.37,2013-01-29 21:21:00,
2013-01-29 16:26:00,63.5,58.6,30.20,NE,53,0.0,0.0,84,0.00,CLR,,0.00,WeatherDisplay:10.37,2013-01-29 21:26:00,
2013-01-29 16:31:00,63.4,58.5,30.20,NE,53,1.1,0.0,84,0.00,CLR,,0.00,WeatherDisplay:10.37,2013-01-29 21:31:00,
2013-01-29 16:36:00,63.3,58.7,30.20,NE,53,0.0,0.0,85,0.00,CLR,,0.00,WeatherDisplay:10.37,2013-01-29 21:36:00,
2013-01-29 16:41:00,63.3,58.7,30.20,NE,53,0.0,0.0,85,0.00,CLR,,0.00,WeatherDisplay:10.37,2013-01-29 21:41:00,
2013-01-29 16:46:00,63.2,58.9,30.19,NE,39,2.3,2.3,86,0.00,CLR,,0.00,WeatherDisplay:10.37,2013-01-29 21:46:00,
2013-01-29 16:51:00,63.2,58.6,30.19,North,360,1.1,1.1,85,0.00,CLR,,0.00,WeatherDisplay:10.37,2013-01-29 21:51:00,
2013-01-29 16:56:00,63.1,58.5,30.18,NNE,25,0.0,0.0,85,0.00,CLR,,0.00,WeatherDisplay:10.37,2013-01-29 21:56:00,
2013-01-29 17:01:00,63.0,58.4,30.18,SE,141,1.1,1.1,85,0.00,CLR,,0.00,WeatherDisplay:10.37,2013-01-29 22:01:00,
2013-01-29 17:06:00,62.9,58.3,30.18,NNW,345,2.3,2.3,85,0.00,CLR,,0.00,WeatherDisplay:10.37,2013-01-29 22:06:00,
2013-01-29 17:11:00,62.7,58.1,30.17,WNW,295,0.0,0.0,85,0.00,CLR,,0.00,WeatherDisplay:10.37,2013-01-29 22:11:00,
2013-01-29 17:16:00,62.5,58.3,30.17,SE,128,2.3,0.0,86,0.00,CLR,,0.00,WeatherDisplay:10.37,2013-01-29 22:16:00,
2013-01-29 17:21:00,62.2,58.0,30.18,ESE,108,1.1,1.1,86,0.00,CLR,,0.00,WeatherDisplay:10.37,2013-01-29 22:21:00,
2013-01-29 17:26:00,62.1,57.9,30.18,ESE,108,0.0,0.0,86,0.00,CLR,,0.00,WeatherDisplay:10.37,2013-01-29 22:26:00,
2013-01-29 17:31:00,61.9,57.7,30.17,NE,46,1.1,0.0,86,0.00,CLR,,0.00,WeatherDisplay:10.37,2013-01-29 22:31:00,
2013-01-29 17:36:00,61.7,57.8,30.17,ESE,106,1.1,0.0,87,0.00,CLR,,0.00,WeatherDisplay:10.37,2013-01-29 22:36:00,
2013-01-29 17:41:00,61.6,57.7,30.17,South,178,2.3,2.3,87,0.00,CLR,,0.00,WeatherDisplay:10.37,2013-01-29 22:41:00,
2013-01-29 17:46:00,61.4,57.5,30.17,NNE,17,2.3,2.3,87,0.00,CLR,,0.00,WeatherDisplay:10.37,2013-01-29 22:46:00,
2013-01-29 17:51:00,61.3,57.4,30.17,NE,44,3.5,3.5,87,0.00,CLR,,0.00,WeatherDisplay:10.37,2013-01-29 22:51:00,
2013-01-29 17:56:00,61.2,57.6,30.17,NE,44,1.1,1.1,88,0.00,CLR,,0.00,WeatherDisplay:10.37,2013-01-29 22:56:00,
2013-01-29 18:01:00,61.1,57.5,30.18,North,5,1.1,0.0,88,0.00,CLR,,0.00,WeatherDisplay:10.37,2013-01-29 23:01:00,
2013-01-29 18:06:00,61.0,57.4,30.17,North,360,1.0,0.0,88,0.00,CLR,,0.00,WeatherDisplay:10.37,2013-01-29 23:06:00,
2013-01-29 18:11:00,60.9,57.3,30.17,ENE,64,0.0,0.0,88,0.00,CLR,,0.00,WeatherDisplay:10.37,2013-01-29 23:11:00,
2013-01-29 18:16:00,60.8,57.5,30.17,ENE,64,0.0,0.0,89,0.00,CLR,,0.00,WeatherDisplay:10.37,2013-01-29 23:16:00,
2013-01-29 18:21:00,60.8,57.2,30.17,WNW,285,0.0,0.0,88,0.00,CLR,,0.00,WeatherDisplay:10.37,2013-01-29 23:21:00,
2013-01-29 18:26:00,60.7,57.4,30.17,NNW,344,1.1,1.1,89,0.00,CLR,,0.00,WeatherDisplay:10.37,2013-01-29 23:26:00,
2013-01-29 18:31:00,60.7,57.4,30.17,NNW,344,0.0,0.0,89,0.00,CLR,,0.00,WeatherDisplay:10.37,2013-01-29 23:31:00,
2013-01-29 18:36:00,60.6,57.3,30.16,NNW,344,0.0,0.0,89,0.00,CLR,,0.00,WeatherDisplay:10.37,2013-01-29 23:36:00,
2013-01-29 18:41:00,60.5,57.2,30.16,NNE,24,1.1,0.0,89,0.00,CLR,,0.00,WeatherDisplay:10.37,2013-01-29 23:41:00,
2013-01-29 18:46:00,60.5,57.2,30.16,NNE,24,0.0,0.0,89,0.00,CLR,,0.00,WeatherDisplay:10.37,2013-01-29 23:46:00,
2013-01-29 18:51:00,60.5,57.2,30.17,NE,38,2.3,2.3,89,0.00,CLR,,0.00,WeatherDisplay:10.37,2013-01-29 23:51:00,
2013-01-29 18:56:00,60.4,57.1,30.16,NE,38,1.1,0.0,89,0.00,CLR,,0.00,WeatherDisplay:10.37,2013-01-29 23:56:00,
2013-01-29 19:01:00,60.4,57.5,30.17,NE,38,0.0,0.0,90,0.00,CLR,,0.00,WeatherDisplay:10.37,2013-01-30 00:01:00,
2013-01-29 19:06:00,60.4,57.1,30.16,NNW,337,0.0,0.0,89,0.00,CLR,,0.00,WeatherDisplay:10.37,2013-01-30 00:06:00,
2013-01-29 19:11:00,60.3,57.4,30.16,NNW,337,0.0,0.0,90,0.00,CLR,,0.00,WeatherDisplay:10.37,2013-01-30 00:11:00,
2013-01-29 19:16:00,60.3,57.0,30.16,SE,124,3.0,3.0,89,0.00,CLR,,0.00,WeatherDisplay:10.37,2013-01-30 00:16:00,
2013-01-29 19:21:00,60.3,57.0,30.16,ESE,109,3.5,3.5,89,0.00,CLR,,0.00,WeatherDisplay:10.37,2013-01-30 00:21:00,
2013-01-29 19:26:00,60.3,57.4,30.17,ESE,109,0.0,0.0,90,0.00,CLR,,0.00,WeatherDisplay:10.37,2013-01-30 00:26:00,
2013-01-29 19:31:00,60.3,57.4,30.16,ESE,109,0.0,0.0,90,0.00,CLR,,0.00,WeatherDisplay:10.37,2013-01-30 00:31:00,
2013-01-29 19:36:00,60.3,57.4,30.16,ESE,109,0.0,0.0,90,0.00,CLR,,0.00,WeatherDisplay:10.37,2013-01-30 00:36:00,
2013-01-29 19:41:00,60.3,57.4,30.16,East,83,0.0,0.0,90,0.00,CLR,,0.00,WeatherDisplay:10.37,2013-01-30 00:41:00,
2013-01-29 19:46:00,60.2,57.3,30.16,East,79,0.0,0.0,90,0.00,CLR,,0.00,WeatherDisplay:10.37,2013-01-30 00:46:00,
2013-01-29 19:51:00,60.3,57.0,30.17,NW,313,3.5,3.5,89,0.00,CLR,,0.00,WeatherDisplay:10.37,2013-01-30 00:51:00,
2013-01-29 19:56:00,60.4,57.5,30.17,ESE,111,2.3,2.3,90,0.00,CLR,,0.00,WeatherDisplay:10.37,2013-01-30 00:56:00,
2013-01-29 20:01:00,60.5,57.6,30.16,ENE,60,3.0,3.0,90,0.00,CLR,,0.00,WeatherDisplay:10.37,2013-01-30 01:01:00,
2013-01-29 20:06:00,60.5,57.6,30.17,ESE,106,1.0,1.0,90,0.00,CLR,,0.00,WeatherDisplay:10.37,2013-01-30 01:06:00,
2013-01-29 20:11:00,60.5,57.2,30.17,SE,145,1.1,0.0,89,0.00,CLR,,0.00,WeatherDisplay:10.37,2013-01-30 01:11:00,
2013-01-29 20:16:00,60.4,57.1,30.16,SE,145,0.0,0.0,89,0.00,CLR,,0.00,WeatherDisplay:10.37,2013-01-30 01:16:00,
2013-01-29 20:21:00,60.4,57.1,30.16,NE,34,3.5,3.5,89,0.00,CLR,,0.00,WeatherDisplay:10.37,2013-01-30 01:21:00,
2013-01-29 20:26:00,60.3,57.4,30.16,ENE,59,0.0,0.0,90,0.00,CLR,,0.00,WeatherDisplay:10.37,2013-01-30 01:26:00,
2013-01-29 20:31:00,60.3,57.0,30.16,ENE,67,0.0,0.3,89,0.00,CLR,,0.00,WeatherDisplay:10.37,2013-01-30 01:31:00,
2013-01-29 20:36:00,60.2,57.3,30.15,ENE,67,1.1,1.1,90,0.00,CLR,,0.00,WeatherDisplay:10.37,2013-01-30 01:36:00,
2013-01-29 20:41:00,60.2,57.6,30.15,ESE,119,2.3,0.0,91,0.00,CLR,,0.02,WeatherDisplay:10.37,2013-01-30 01:41:00,
2013-01-29 20:46:00,60.2,57.9,30.15,ENE,58,1.1,1.1,92,0.04,RA,,0.04,WeatherDisplay:10.37,2013-01-30 01:46:00,
2013-01-29 20:51:00,60.2,58.2,30.15,ENE,74,0.0,0.0,93,0.05,RA,,0.05,WeatherDisplay:10.37,2013-01-30 01:51:00,
2013-01-29 20:56:00,60.0,58.0,30.15,ESE,111,0.0,0.0,93,0.06,RA,,0.06,WeatherDisplay:10.37,2013-01-30 01:56:00,
2013-01-29 21:01:00,60.0,58.3,30.16,East,90,1.1,1.1,94,0.07,RA,,0.07,WeatherDisplay:10.37,2013-01-30 02:01:00,
2013-01-29 21:06:00,59.8,58.1,30.16,NE,56,0.0,0.0,94,0.07,RA,,0.07,WeatherDisplay:10.37,2013-01-30 02:06:00,
2013-01-29 21:11:00,59.7,58.3,30.15,NE,56,0.0,0.0,95,0.07,CLR,,0.07,WeatherDisplay:10.37,2013-01-30 02:11:00,
2013-01-29 21:16:00,59.6,57.9,30.15,NE,56,0.0,0.0,94,0.07,CLR,,0.07,WeatherDisplay:10.37,2013-01-30 02:16:00,
2013-01-29 21:21:00,59.5,57.8,30.15,NE,56,0.0,0.0,94,0.08,RA,,0.08,WeatherDisplay:10.37,2013-01-30 02:21:00,
2013-01-29 21:26:00,59.3,57.6,30.15,NE,56,0.0,0.0,94,0.08,RA,,0.08,WeatherDisplay:10.37,2013-01-30 02:26:00,
2013-01-29 21:31:00,59.2,57.8,30.15,NE,56,0.0,0.0,95,0.08,,,0.08,WeatherDisplay:10.37,2013-01-30 02:31:00,
2013-01-29 21:36:00,59.1,57.7,30.15,NE,56,0.0,0.0,95,0.08,CLR,,0.08,WeatherDisplay:10.37,2013-01-30 02:36:00,
2013-01-29 21:41:00,59.0,57.6,30.14,NE,56,0.0,0.0,95,0.08,CLR,,0.08,WeatherDisplay:10.37,2013-01-30 02:41:00,
2013-01-29 21:46:00,58.9,57.5,30.14,NE,56,0.0,0.0,95,0.04,CLR,,0.08,WeatherDisplay:10.37,2013-01-30 02:46:00,
2013-01-29 21:51:00,58.8,57.4,30.14,NE,56,0.0,0.0,95,0.03,CLR,,0.08,WeatherDisplay:10.37,2013-01-30 02:51:00,
2013-01-29 21:56:00,58.7,57.3,30.14,NE,56,0.0,0.0,95,0.02,CLR,,0.08,WeatherDisplay:10.37,2013-01-30 02:56:00,
2013-01-29 22:01:00,58.7,57.6,30.14,NE,56,0.0,0.0,96,0.01,CLR,,0.08,WeatherDisplay:10.37,2013-01-30 03:01:00,
2013-01-29 22:06:00,58.6,57.5,30.14,NE,56,0.0,0.0,96,0.01,CLR,,0.08,WeatherDisplay:10.37,2013-01-30 03:06:00,
2013-01-29 22:11:00,58.5,57.4,30.13,NE,56,0.0,0.0,96,0.01,CLR,,0.08,WeatherDisplay:10.37,2013-01-30 03:11:00,
2013-01-29 22:16:00,58.5,57.4,30.13,NE,56,0.0,0.0,96,0.01,CLR,,0.08,WeatherDisplay:10.37,2013-01-30 03:16:00,
2013-01-29 22:21:00,58.4,57.3,30.14,NE,56,0.0,0.0,96,0.00,CLR,,0.08,WeatherDisplay:10.37,2013-01-30 03:21:00,
2013-01-29 22:27:00,58.3,57.2,30.13,NE,56,0.0,0.0,96,0.00,CLR,,0.08,WeatherDisplay:10.37,2013-01-30 03:27:00,
2013-01-29 22:32:00,58.3,57.2,30.13,NE,56,0.0,0.0,96,0.00,CLR,,0.08,WeatherDisplay:10.37,2013-01-30 03:32:00,
2013-01-29 22:37:00,58.3,57.2,30.12,NE,56,0.0,0.0,96,0.00,CLR,,0.08,WeatherDisplay:10.37,2013-01-30 03:37:00,
2013-01-29 22:42:00,58.3,57.5,30.12,NE,56,0.0,0.0,97,0.00,CLR,,0.08,WeatherDisplay:10.37,2013-01-30 03:42:00,
2013-01-29 22:47:00,58.3,57.5,30.12,NE,56,0.0,0.0,97,0.00,CLR,,0.08,WeatherDisplay:10.37,2013-01-30 03:47:00,
2013-01-29 22:52:00,58.3,57.5,30.12,NE,56,0.0,0.0,97,0.00,CLR,,0.08,WeatherDisplay:10.37,2013-01-30 03:52:00,
2013-01-29 22:57:00,58.3,57.5,30.12,NE,56,0.0,0.0,97,0.00,CLR,,0.08,WeatherDisplay:10.37,2013-01-30 03:57:00,
2013-01-29 23:02:00,58.2,57.4,30.12,NE,56,0.0,0.0,97,0.00,CLR,,0.08,WeatherDisplay:10.37,2013-01-30 04:02:00,
2013-01-29 23:07:00,58.2,57.4,30.12,NE,56,0.0,0.0,97,0.00,CLR,,0.08,WeatherDisplay:10.37,2013-01-30 04:07:00,
2013-01-29 23:12:00,58.1,57.3,30.12,NE,56,0.0,0.0,97,0.00,CLR,,0.08,WeatherDisplay:10.37,2013-01-30 04:12:00,
2013-01-29 23:17:00,58.1,57.3,30.12,NE,56,0.0,0.0,97,0.00,CLR,,0.08,WeatherDisplay:10.37,2013-01-30 04:17:00,
2013-01-29 23:22:00,58.0,57.2,30.11,NE,56,0.0,0.0,97,0.00,CLR,,0.08,WeatherDisplay:10.37,2013-01-30 04:22:00,
2013-01-29 23:27:00,58.0,57.2,30.11,NE,56,0.0,0.0,97,0.00,CLR,,0.08,WeatherDisplay:10.37,2013-01-30 04:27:00,
2013-01-29 23:32:00,58.0,57.2,30.11,NE,56,1.1,0.0,97,0.00,CLR,,0.08,WeatherDisplay:10.37,2013-01-30 04:32:00,
2013-01-29 23:37:00,58.0,57.2,30.11,NE,56,0.0,0.0,97,0.00,CLR,,0.08,WeatherDisplay:10.37,2013-01-30 04:37:00,
2013-01-29 23:42:00,58.0,57.2,30.10,NE,56,0.0,0.0,97,0.00,CLR,,0.08,WeatherDisplay:10.37,2013-01-30 04:42:00,
2013-01-29 23:47:00,58.0,57.4,30.10,NE,56,0.0,0.0,98,0.00,CLR,,0.08,WeatherDisplay:10.37,2013-01-30 04:47:00,
2013-01-29 23:52:00,58.0,57.4,30.10,NE,56,0.0,0.0,98,0.00,CLR,,0.08,WeatherDisplay:10.37,2013-01-30 04:52:00,
2013-01-29 23:57:00,58.0,57.2,30.10,NE,56,0.0,0.0,97,0.00,CLR,,0.08,WeatherDisplay:10.37,2013-01-30 04:57:00,